| time (UTC) | temp F | wind direction | speed MPH | gust MPH | rain 1hr in | rain 24hr in | rain mn in | humidity % | barometer mb |
| 20260903034522 | 81 | 125 | 0.0 | 1.0 | 0.00 | 0.00 | 0.00 | 70 | 1007.7 |
| 20260903033022 | 81 | 125 | 0.0 | 0.0 | 0.00 | 0.00 | 0.00 | 71 | 1007.6 |
| 20260903031527 | 81 | 125 | 0.0 | 0.0 | 0.00 | 0.00 | 0.00 | 72 | 1007.6 |
| 20260903030021 | 81 | 125 | 0.0 | 0.0 | 0.00 | 0.00 | 0.00 | 73 | 1007.5 |
| 20260903024520 | 82 | 125 | 0.0 | 2.0 | 0.00 | 0.00 | 0.00 | 72 | 1007.5 |
| 20260903023024 | 82 | 125 | 0.0 | 0.0 | 0.00 | 0.00 | 0.00 | 72 | 1007.5 |
| 20260903021520 | 83 | 125 | 0.0 | 0.0 | 0.00 | 0.00 | 0.00 | 71 | 1007.3 |
| 20260903020019 | 84 | 125 | 0.0 | 0.0 | 0.00 | 0.00 | 0.00 | 70 | 1007.1 |
| 20260903014518 | 85 | 125 | 0.0 | 0.0 | 0.00 | 0.00 | 0.00 | 68 | 1006.9 |
| 20260903013019 | 86 | 125 | 0.0 | 0.0 | 0.00 | 0.00 | 0.00 | 67 | 1006.8 |
| 20260903011518 | 87 | 125 | 0.0 | 1.0 | 0.00 | 0.00 | 0.00 | 66 | 1006.6 |
| 20260903010036 | 88 | 125 | 0.0 | 2.0 | 0.00 | 0.00 | 0.00 | 64 | 1006.6 |
| 20260903004516 | 90 | 126 | 0.0 | 1.0 | 0.00 | 0.00 | 0.00 | 61 | 1006.5 |
| 20260903003016 | 93 | 125 | 0.0 | 2.0 | 0.00 | 0.00 | 0.00 | 56 | 1006.5 |
| 20260903001525 | 95 | 125 | 0.0 | 1.0 | 0.00 | 0.00 | 0.00 | 50 | 1006.5 |
| 20260903000015 | 97 | 125 | 0.0 | 1.0 | 0.00 | 0.00 | 0.00 | 47 | 1006.5 |
| 20260902234521 | 98 | 125 | 0.0 | 2.0 | 0.00 | 0.00 | 0.00 | 44 | 1006.5 |
| 20260902233014 | 98 | 125 | 1.0 | 7.0 | 0.00 | 0.00 | 0.00 | 44 | 1006.6 |
| 20260902231529 | 99 | 102 | 1.0 | 5.0 | 0.00 | 0.00 | 0.00 | 42 | 1006.6 |
| 20260902230012 | 100 | 197 | 2.0 | 6.0 | 0.00 | 0.00 | 0.00 | 40 | 1006.7 |
| 20260902224512 | 99 | 134 | 2.0 | 9.0 | 0.00 | 0.00 | 0.00 | 42 | 1006.7 |
| 20260902223013 | 99 | 227 | 4.0 | 11.0 | 0.00 | 0.00 | 0.00 | 40 | 1006.7 |
| 20260902221517 | 99 | 247 | 4.0 | 11.0 | 0.00 | 0.00 | 0.00 | 40 | 1006.7 |
| 20260902220024 | 100 | 190 | 3.0 | 8.0 | 0.00 | 0.00 | 0.00 | 40 | 1006.7 |
| 20260902214509 | 100 | 148 | 4.0 | 13.0 | 0.00 | 0.00 | 0.00 | 40 | 1006.9 |
| 20260902213008 | 99 | 155 | 2.0 | 8.0 | 0.00 | 0.00 | 0.00 | 41 | 1006.9 |
| 20260902211505 | 100 | 272 | 2.0 | 10.0 | 0.00 | 0.00 | 0.00 | 41 | 1007.2 |
| 20260902210005 | 100 | 86 | 3.0 | 10.0 | 0.00 | 0.00 | 0.00 | 40 | 1007.3 |
| 20260902204502 | 99 | 167 | 5.0 | 10.0 | 0.00 | 0.00 | 0.00 | 41 | 1007.5 |
| 20260902203003 | 100 | 170 | 4.0 | 7.0 | 0.00 | 0.00 | 0.00 | 42 | 1007.6 |
| 20260902201559 | 100 | 237 | 3.0 | 10.0 | 0.00 | 0.00 | 0.00 | 42 | 1007.8 |
| 20260902200057 | 99 | 141 | 3.0 | 8.0 | 0.00 | 0.00 | 0.00 | 44 | 1007.9 |
| 20260902194554 | 98 | 138 | 3.0 | 12.0 | 0.00 | 0.00 | 0.00 | 45 | 1008.2 |
| 20260902193053 | 98 | 164 | 4.0 | 11.0 | 0.00 | 0.00 | 0.00 | 46 | 1008.3 |
| 20260902191552 | 98 | 105 | 5.0 | 11.0 | 0.00 | 0.00 | 0.00 | 47 | 1008.5 |
| 20260902190049 | 98 | 116 | 2.0 | 12.0 | 0.00 | 0.00 | 0.00 | 48 | 1008.7 |
| 20260902184546 | 97 | 126 | 2.0 | 8.0 | 0.00 | 0.00 | 0.00 | 50 | 1008.9 |
| 20260902183044 | 96 | 99 | 3.0 | 13.0 | 0.00 | 0.00 | 0.00 | 50 | 1009.1 |
| 20260902181552 | 96 | 231 | 4.0 | 11.0 | 0.00 | 0.00 | 0.00 | 49 | 1009.3 |
| 20260902180053 | 96 | 214 | 5.0 | 11.0 | 0.00 | 0.00 | 0.00 | 49 | 1009.5 |
| 20260902174539 | 95 | 143 | 3.0 | 11.0 | 0.00 | 0.00 | 0.00 | 52 | 1009.7 |
| 20260902173036 | 94 | 114 | 3.0 | 11.0 | 0.00 | 0.00 | 0.00 | 54 | 1009.8 |
| 20260902171540 | 94 | 167 | 4.0 | 9.0 | 0.00 | 0.00 | 0.00 | 53 | 1009.9 |
| 20260902170032 | 93 | 226 | 4.0 | 11.0 | 0.00 | 0.00 | 0.00 | 54 | 1010.0 |
| 20260902164529 | 93 | 168 | 1.0 | 7.0 | 0.00 | 0.00 | 0.00 | 55 | 1010.2 |
| 20260902163027 | 92 | 119 | 3.0 | 8.0 | 0.00 | 0.00 | 0.00 | 57 | 1010.3 |
| 20260902161536 | 90 | 82 | 3.0 | 9.0 | 0.00 | 0.00 | 0.00 | 59 | 1010.1 |
| 20260902160020 | 89 | 239 | 2.0 | 11.0 | 0.00 | 0.00 | 0.00 | 61 | 1010.2 |
| 20260902154516 | 88 | 220 | 1.0 | 11.0 | 0.00 | 0.00 | 0.00 | 62 | 1010.3 |
| 20260902153014 | 87 | 211 | 2.0 | 9.0 | 0.00 | 0.00 | 0.00 | 63 | 1010.1 |
| 20260902151512 | 86 | 98 | 3.0 | 10.0 | 0.00 | 0.00 | 0.00 | 64 | 1010.2 |
| 20260902150009 | 85 | 253 | 3.0 | 9.0 | 0.00 | 0.00 | 0.00 | 65 | 1010.2 |
| 20260902144510 | 84 | 218 | 5.0 | 13.0 | 0.00 | 0.00 | 0.00 | 65 | 1010.2 |
| 20260902143003 | 83 | 181 | 2.0 | 13.0 | 0.00 | 0.00 | 0.00 | 66 | 1010.2 |
| 20260902141503 | 83 | 180 | 3.0 | 8.0 | 0.00 | 0.00 | 0.00 | 66 | 1010.4 |
| 20260902140000 | 82 | 104 | 1.0 | 8.0 | 0.00 | 0.00 | 0.00 | 67 | 1010.4 |
| 20260902134602 | 81 | 111 | 1.0 | 10.0 | 0.00 | 0.00 | 0.00 | 68 | 1010.4 |
| 20260902133101 | 81 | 189 | 2.0 | 7.0 | 0.00 | 0.00 | 0.00 | 67 | 1010.3 |
| 20260902131559 | 80 | 150 | 1.0 | 6.0 | 0.00 | 0.00 | 0.00 | 68 | 1010.3 |
| 20260902130058 | 80 | 147 | 2.0 | 6.0 | 0.00 | 0.00 | 0.00 | 68 | 1010.2 |
| 20260902124603 | 79 | 253 | 1.0 | 5.0 | 0.00 | 0.00 | 0.00 | 68 | 1010.2 |
| 20260902123100 | 79 | 109 | 1.0 | 5.0 | 0.00 | 0.00 | 0.00 | 68 | 1010.1 |
| 20260902121607 | 79 | 241 | 0.0 | 5.0 | 0.00 | 0.00 | 0.00 | 68 | 1009.9 |
| 20260902114610 | 78 | 120 | 1.0 | 5.0 | 0.00 | 0.00 | 0.00 | 69 | 1009.8 |
| 20260902113058 | 78 | 210 | 0.0 | 3.0 | 0.00 | 0.00 | 0.00 | 69 | 1009.7 |
| 20260902111600 | 78 | 245 | 0.0 | 5.0 | 0.00 | 0.00 | 0.00 | 69 | 1009.7 |
| 20260902110057 | 79 | 87 | 0.0 | 2.0 | 0.00 | 0.00 | 0.00 | 68 | 1009.6 |
| 20260902104549 | 79 | 101 | 0.0 | 6.0 | 0.00 | 0.00 | 0.00 | 67 | 1009.7 |
| 20260902103107 | 79 | 122 | 0.0 | 3.0 | 0.00 | 0.00 | 0.00 | 67 | 1009.6 |
| 20260902101547 | 78 | 122 | 0.0 | 4.0 | 0.00 | 0.00 | 0.00 | 68 | 1009.6 |
| 20260902100047 | 78 | 206 | 0.0 | 2.0 | 0.00 | 0.00 | 0.00 | 69 | 1009.5 |
| 20260902094548 | 77 | 207 | 0.0 | 3.0 | 0.00 | 0.00 | 0.00 | 70 | 1009.4 |
| 20260902093044 | 77 | 174 | 1.0 | 3.0 | 0.00 | 0.00 | 0.00 | 71 | 1009.3 |
| 20260902091548 | 78 | 175 | 0.0 | 0.0 | 0.00 | 0.00 | 0.00 | 69 | 1009.1 |
| 20260902090048 | 79 | 175 | 0.0 | 0.0 | 0.00 | 0.00 | 0.00 | 67 | 1009.1 |
| 20260902084535 | 80 | 174 | 0.0 | 0.0 | 0.00 | 0.00 | 0.00 | 65 | 1009.0 |
| 20260902083034 | 80 | 175 | 0.0 | 5.0 | 0.00 | 0.00 | 0.00 | 64 | 1008.8 |
| 20260902081540 | 80 | 154 | 1.0 | 3.0 | 0.00 | 0.00 | 0.00 | 64 | 1008.7 |
| 20260902080033 | 80 | 150 | 0.0 | 4.0 | 0.00 | 0.00 | 0.00 | 65 | 1008.7 |
| 20260902074542 | 79 | 150 | 0.0 | 3.0 | 0.00 | 0.00 | 0.00 | 66 | 1008.7 |
| 20260902073030 | 80 | 149 | 0.0 | 2.0 | 0.00 | 0.00 | 0.00 | 65 | 1008.8 |
| 20260902071527 | 81 | 149 | 0.0 | 0.0 | 0.00 | 0.00 | 0.00 | 63 | 1008.7 |
| 20260902070026 | 81 | 149 | 0.0 | 2.0 | 0.00 | 0.00 | 0.00 | 63 | 1008.7 |
| 20260902064531 | 81 | 149 | 0.0 | 1.0 | 0.00 | 0.00 | 0.00 | 63 | 1008.9 |
| 20260902063024 | 81 | 149 | 0.0 | 0.0 | 0.00 | 0.00 | 0.00 | 64 | 1008.9 |
| 20260902061537 | 81 | 149 | 0.0 | 0.0 | 0.00 | 0.00 | 0.00 | 63 | 1009.0 |
| 20260902060025 | 81 | 149 | 0.0 | 0.0 | 0.00 | 0.00 | 0.00 | 62 | 1008.9 |
| 20260902054534 | 82 | 149 | 0.0 | 0.0 | 0.00 | 0.00 | 0.00 | 61 | 1009.0 |
| 20260902053021 | 82 | 149 | 0.0 | 1.0 | 0.00 | 0.00 | 0.00 | 60 | 1009.0 |
| 20260902051514 | 83 | 149 | 0.0 | 1.0 | 0.00 | 0.00 | 0.00 | 58 | 1009.0 |
| 20260902050016 | 83 | 149 | 0.0 | 3.0 | 0.00 | 0.00 | 0.00 | 58 | 1008.8 |
| 20260902044513 | 83 | 149 | 0.0 | 2.0 | 0.00 | 0.00 | 0.00 | 58 | 1008.7 |
| 20260902043015 | 83 | 149 | 0.0 | 2.0 | 0.00 | 0.00 | 0.00 | 58 | 1008.6 |
| 20260902041514 | 83 | 149 | 1.0 | 5.0 | 0.00 | 0.00 | 0.00 | 58 | 1008.7 |
| 20260902040012 | 83 | 150 | 0.0 | 0.0 | 0.00 | 0.00 | 0.00 | 59 | 1008.7 |